TOURFACTS.DK  
Stats and Facts from Tour de France.

Tour de France 2018 starts in 317 days
  Riders   Stages   Teams   Summits   Yearly  


 
Search by year

 2017 - St. 21:  14824 starters.
  5131 different riders.
  634 teams.
  2232 stages.
  454 restdays.
  439589.60 km.
  5653 abandonnees.


Top 3
Christopher Froome86:20:55
Rigoberto Uran86:21:49
Romain Bardet86:23:15
Warren Barguil169 pt.
Primoz Roglic80 pt.
Thomas De Gendt64 pt.
Michael Matthews359 pt.
André Greipel234 pt.
Edvald Boasson Hagen220 pt.
Simon Yates86:27:09
Louis Meintjes86:29:15
Emanuel Buchmann86:54:16
Facts from Tour de France 2015
  |   Stages.  |   Stage winners.  |   Days in yellow  |   Average speed.  |   Route.  |   Teams.  |   All riders.  |   Rookies.  |   Withdrawls.  |  

  |   GC.  |   Polka  |   Green  |   White  |   Summits. (In tour)  |   Summits. (Points)  |   Miscellaneous.  |  

Stage 1 on 04 - 07 - 2015
         Owning:    Adrien Petit      Tom Dumoulin      Rohan Dennis    
Pick a stage:  1 2 3 4 5 6 7 8 9 10 11 12 13 14 15 16 17 18 19 20 21
  UtrechtUtrecht | Dist: 13.80 km.

Average speed for all riders in stage:  50,990 km./hr.
    Place:Name:Team:Time:Km/h:
AUSRohan DennisUSABMC Racing Team00:14:56  +  00:00:00=55,446 
GERTony MartinBELEtixx - Quick Step00:15:01  +  00:00:05=55,139 
SUIFabian CancellaraUSATrek Factory Racing00:15:02  +  00:00:06=55,078 
4 NEDTom DumoulinDEUTeam Giant Alpecin00:15:04  +  00:00:08=54,956 
5 NEDJos Van EmdenNLDTeam Lotto NL - Jumbo00:15:11  +  00:00:15=54,533 
6 ESPJonathan CastroviejoESPMovistar Team00:15:19  +  00:00:23=54,059 
7 AUTMatthias BrändleCHEIAM Cycling00:15:19  +  00:00:23=54,059 
8 ITAAdriano MaloriESPMovistar Team00:15:25  +  00:00:29=53,708 
9 NEDWilco KeldermanNLDTeam Lotto NL - Jumbo00:15:26  +  00:00:30=53,650 
10 ENGStephen CummingsZAFMTN - Qhubeka P/B Samsung00:15:28  +  00:00:32=53,534 
11 NEDRobert GesinkNLDTeam Lotto NL - Jumbo00:15:29  +  00:00:33=53,477 
12 WALGeraint ThomasGBRSky Procycling00:15:29  +  00:00:33=53,477 
13 ENGAlex DowsettESPMovistar Team00:15:32  +  00:00:36=53,305 
14 NEDBauke MollemaUSATrek Factory Racing00:15:33  +  00:00:37=53,248 
15 LUXBob JungelsUSATrek Factory Racing00:15:34  +  00:00:38=53,191 
16 NEDDylan Van BaarleUSATeam Cannondale - Garmin00:15:34  +  00:00:38=53,191 
17 COLRigoberto UranBELEtixx - Quick Step00:15:36  +  00:00:40=53,077 
18 FRAThibaut PinotFRAFDJ00:15:37  +  00:00:41=53,020 
19 SVKPeter SaganRUSTinkoff Saxo00:15:37  +  00:00:41=53,020 
20 USATejay Van GarderenUSABMC Racing Team00:15:38  +  00:00:42=52,964 
21 CZELeopold KönigGBRSky Procycling00:15:39  +  00:00:43=52,907 
22 ITAVincenzo NibaliKAZAstana Pro Team00:15:39  +  00:00:43=52,907 
23 NEDLars BoomKAZAstana Pro Team00:15:40  +  00:00:44=52,851 
24 ITADaniel OssUSABMC Racing Team00:15:40  +  00:00:44=52,851 
25 CANSvein TuftAUSOrica - GreenEDGE00:15:41  +  00:00:45=52,795 
26 GERJohn DegenkolbDEUTeam Giant Alpecin00:15:41  +  00:00:45=52,795 
27 NEDLieuwe WestraKAZAstana Pro Team00:15:41  +  00:00:45=52,795 
28 CZEZdenek StybarBELEtixx - Quick Step00:15:41  +  00:00:45=52,795 
29 FRASylvain ChavanelCHEIAM Cycling00:15:41  +  00:00:45=52,795 
30 URSRein TaaramäeKAZAstana Pro Team00:15:41  +  00:00:45=52,795 
31 NEDSteven KruijswijkNLDTeam Lotto NL - Jumbo00:15:41  +  00:00:45=52,795 
32 AUSLuke DurbridgeAUSOrica - GreenEDGE00:15:42  +  00:00:46=52,739 
33 ENGSimon YatesAUSOrica - GreenEDGE00:15:42  +  00:00:46=52,739 
34 AUSMichael RogersRUSTinkoff Saxo00:15:43  +  00:00:47=52,683 
35 FRAJérémy RoyFRAFDJ00:15:43  +  00:00:47=52,683 
36 BELSep VanmarckeNLDTeam Lotto NL - Jumbo00:15:45  +  00:00:49=52,571 
37 SUIMartin ElmigerCHEIAM Cycling00:15:46  +  00:00:50=52,516 
38 BELGreg Van AvermaetUSABMC Racing Team00:15:46  +  00:00:50=52,516 
39 KENChristopher FroomeGBRSky Procycling00:15:46  +  00:00:50=52,516 
40 FRAJérôme CoppelCHEIAM Cycling00:15:47  +  00:00:51=52,460 
41 ESPGorka Izaguirre InsaustiESPMovistar Team00:15:49  +  00:00:53=52,350 
42 GERPaul MartensNLDTeam Lotto NL - Jumbo00:15:51  +  00:00:55=52,240 
43 ESPAlejandro ValverdeESPMovistar Team00:15:52  +  00:00:56=52,185 
44 RSADaryl ImpeyAUSOrica - GreenEDGE00:15:53  +  00:00:57=52,130 
45 UKRAndriy GrivkoKAZAstana Pro Team00:15:53  +  00:00:57=52,130 
46 ESPAlberto ContadorRUSTinkoff Saxo00:15:54  +  00:00:58=52,075 
47 AUSMichael MatthewsAUSOrica - GreenEDGE00:15:54  +  00:00:58=52,075 
48 FRATony GallopinBELLotto Soudal00:15:54  +  00:00:58=52,075 
49 ESPMarkel IrizarUSATrek Factory Racing00:15:54  +  00:00:58=52,075 
50 FRAJean-Christophe PeraudFRAAg2r La Mondiale00:15:55  +  00:00:59=52,021 
51 AUTGeorg PreidlerDEUTeam Giant Alpecin00:15:55  +  00:00:59=52,021 
52 NOREdvald Boasson HagenZAFMTN - Qhubeka P/B Samsung00:15:55  +  00:00:59=52,021 
53 SUISteve MorabitoFRAFDJ00:15:56  +  00:01:00=51,967 
54 SUIMichael AlbasiniAUSOrica - GreenEDGE00:15:56  +  00:01:00=51,967 
55 FRADamien GaudinFRAAg2r La Mondiale00:15:56  +  00:01:00=51,967 
56 ESPHaimar ZubeldiaUSATrek Factory Racing00:15:57  +  00:01:01=51,912 
57 COLNairo QuintanaESPMovistar Team00:15:57  +  00:01:01=51,912 
58 URSTanel KangertKAZAstana Pro Team00:15:58  +  00:01:02=51,858 
59 ESPSamuel SanchezUSABMC Racing Team00:16:00  +  00:01:04=51,750 
60 ITAManuel QuinziatoUSABMC Racing Team00:16:00  +  00:01:04=51,750 
61 GERSimon GeschkeDEUTeam Giant Alpecin00:16:01  +  00:01:05=51,696 
62 NEDWout PoelsGBRSky Procycling00:16:01  +  00:01:05=51,696 
63 CZERoman KreuzigerRUSTinkoff Saxo00:16:02  +  00:01:06=51,642 
64 POLMichal KwiatkowskiBELEtixx - Quick Step00:16:02  +  00:01:06=51,642 
65 AUSRichie PorteGBRSky Procycling00:16:02  +  00:01:06=51,642 
66 NEDPieter WeeningAUSOrica - GreenEDGE00:16:03  +  00:01:07=51,589 
67 NEDTom LeezerNLDTeam Lotto NL - Jumbo00:16:03  +  00:01:07=51,589 
68 IOMPeter KennaughGBRSky Procycling00:16:04  +  00:01:08=51,535 
69 PORTiago PintoRUSTeam Katusha00:16:04  +  00:01:08=51,535 
70 PORJosé João PimentaDEUBora-Argon 1800:16:04  +  00:01:08=51,535 
71 NORAlexander KristoffRUSTeam Katusha00:16:04  +  00:01:08=51,535 
72 SUIReto HollensteinCHEIAM Cycling00:16:05  +  00:01:09=51,482 
73 GERMarcel SiebergBELLotto Soudal00:16:06  +  00:01:10=51,429 
74 ENGIan StannardGBRSky Procycling00:16:07  +  00:01:11=51,375 
75 NZLJack BauerUSATeam Cannondale - Garmin00:16:07  +  00:01:11=51,375 
76 GERAndré GreipelBELLotto Soudal00:16:07  +  00:01:11=51,375 
77 ESPImanol ErvitiESPMovistar Team00:16:07  +  00:01:11=51,375 
78 GEREmanuel BuchmannDEUBora-Argon 1800:16:08  +  00:01:12=51,322 
79 SUIMathias FrankCHEIAM Cycling00:16:08  +  00:01:12=51,322 
80 SUIMarcel WyssCHEIAM Cycling00:16:08  +  00:01:12=51,322 
81 FRAArnaud DémareFRAFDJ00:16:08  +  00:01:12=51,322 
82 COLWinner AnaconaESPMovistar Team00:16:09  +  00:01:13=51,269 
83 PORRui CostaITALampre-Merida00:16:09  +  00:01:13=51,269 
84 BELJulien VermoteBELEtixx - Quick Step00:16:09  +  00:01:13=51,269 
85 FRARomain SicardFRATeam Europcar00:16:09  +  00:01:13=51,269 
86 AUSZakkari DempsterDEUBora-Argon 1800:16:10  +  00:01:14=51,216 
87 CANRyder HesjedalUSATeam Cannondale - Garmin00:16:11  +  00:01:15=51,164 
88 FRAWilliam BonnetFRAFDJ00:16:11  +  00:01:15=51,164 
89 SLOKristjan KorenUSATeam Cannondale - Garmin00:16:11  +  00:01:15=51,164 
90 USAAndrew TalanskyUSATeam Cannondale - Garmin00:16:11  +  00:01:15=51,164 
91 NEDLaurens ten DamNLDTeam Lotto NL - Jumbo00:16:11  +  00:01:15=51,164 
92 POLBartosz HuzarskiDEUBora-Argon 1800:16:12  +  00:01:16=51,111 
93 ITADaniele BennatiRUSTinkoff Saxo00:16:12  +  00:01:16=51,111 
94 PORNelson OliveiraITALampre-Merida00:16:12  +  00:01:16=51,111 
95 ENGDaniel MartinUSATeam Cannondale - Garmin00:16:13  +  00:01:17=51,059 
96 NEDStef ClementCHEIAM Cycling00:16:13  +  00:01:17=51,059 
97 ENGAdam YatesAUSOrica - GreenEDGE00:16:14  +  00:01:18=51,006 
98 NEDSebastian LangeveldUSATeam Cannondale - Garmin00:16:15  +  00:01:19=50,954 
99 DENLars BakBELLotto Soudal00:16:15  +  00:01:19=50,954 
100 BELStijn DevolderUSATrek Factory Racing00:16:15  +  00:01:19=50,954 
101 FRANicolas RocheGBRSky Procycling00:16:16  +  00:01:20=50,902 
102 BELTim WellensBELLotto Soudal00:16:17  +  00:01:21=50,850 
103 RSALouis MeintjesZAFMTN - Qhubeka P/B Samsung00:16:17  +  00:01:21=50,850 
104 BELSerge PauwelsZAFMTN - Qhubeka P/B Samsung00:16:17  +  00:01:21=50,850 
105 USATyler FarrarZAFMTN - Qhubeka P/B Samsung00:16:18  +  00:01:22=50,798 
106 NZLGregory HendersonBELLotto Soudal00:16:18  +  00:01:22=50,798 
107 FRAFlorian VachonFRABretagne - Séché Environnement00:16:18  +  00:01:22=50,798 
108 AUSSimon GerransAUSOrica - GreenEDGE00:16:18  +  00:01:22=50,798 
109 ESPAlberto LosadaRUSTeam Katusha00:16:19  +  00:01:23=50,746 
110 NEDBram TankinkNLDTeam Lotto NL - Jumbo00:16:19  +  00:01:23=50,746 
111 POLRafal MajkaRUSTinkoff Saxo00:16:19  +  00:01:23=50,746 
112 FRAThomas VoecklerFRATeam Europcar00:16:20  +  00:01:24=50,694 
113 FRAMatthieu LadagnousFRAFDJ00:16:20  +  00:01:24=50,694 
114 FRANicolas EdetFRACofidis – Solutions Crédits00:16:20  +  00:01:24=50,694 
115 FRAFlorian SénéchalFRACofidis – Solutions Crédits00:16:20  +  00:01:24=50,694 
116 SUIDanilo WyssUSABMC Racing Team00:16:20  +  00:01:24=50,694 
117 POLMichal GolasBELEtixx - Quick Step00:16:20  +  00:01:24=50,694 
118 GERAndreas SchillingerDEUBora-Argon 1800:16:21  +  00:01:25=50,642 
119 GERPaul VossDEUBora-Argon 1800:16:21  +  00:01:25=50,642 
120 FRAChristophe LaporteFRACofidis – Solutions Crédits00:16:21  +  00:01:25=50,642 
121 NEDRamon SinkeldamDEUTeam Giant Alpecin00:16:21  +  00:01:25=50,642 
122 ITAMatteo TrentinBELEtixx - Quick Step00:16:22  +  00:01:26=50,591 
123 IOMMark CavendishBELEtixx - Quick Step00:16:22  +  00:01:26=50,591 
124 BELThomas De GendtBELLotto Soudal00:16:22  +  00:01:26=50,591 
125 ESPJoaquim RodriguezRUSTeam Katusha00:16:22  +  00:01:26=50,591 
126 SUIJakob FuglsangKAZAstana Pro Team00:16:22  +  00:01:26=50,591 
127 FRAWarren BarguilDEUTeam Giant Alpecin00:16:23  +  00:01:27=50,539 
128 KAZDmitriy GruzdevKAZAstana Pro Team00:16:23  +  00:01:27=50,539 
129 RSAJacques Janse Van RensburgZAFMTN - Qhubeka P/B Samsung00:16:23  +  00:01:27=50,539 
130 FRAAlexandre GeniezFRAFDJ00:16:23  +  00:01:27=50,539 
131 ITAMichele ScarponiKAZAstana Pro Team00:16:24  +  00:01:28=50,488 
132 FRAChristophe RiblonFRAAg2r La Mondiale00:16:26  +  00:01:30=50,385 
133 ESPRafael Valls FerriITALampre-Merida00:16:26  +  00:01:30=50,385 
134 COLJarlinson Pantano GomezCHEIAM Cycling00:16:27  +  00:01:31=50,334 
135 FRAPierrick FédrigoFRABretagne - Séché Environnement00:16:27  +  00:01:31=50,334 
136 ESPDaniel NavarroFRACofidis – Solutions Crédits00:16:27  +  00:01:31=50,334 
137 SUIGregory RastUSATrek Factory Racing00:16:27  +  00:01:31=50,334 
138 GERDominik NerzDEUBora-Argon 1800:16:27  +  00:01:31=50,334 
139 BELJan BakelantsFRAAg2r La Mondiale00:16:28  +  00:01:32=50,283 
140 FRABenoit VaugrenardFRAFDJ00:16:28  +  00:01:32=50,283 
141 URSRamunas NavardauskasUSATeam Cannondale - Garmin00:16:29  +  00:01:33=50,233 
142 BELJens DebusschereBELLotto Soudal00:16:29  +  00:01:33=50,233 
143 FRAJulien SimonFRACofidis – Solutions Crédits00:16:29  +  00:01:33=50,233 
144 FRAAnthony DelaplaceFRABretagne - Séché Environnement00:16:29  +  00:01:33=50,233 
145 FRARomain BardetFRAAg2r La Mondiale00:16:30  +  00:01:34=50,182 
146 ERIDaniel TeklehaimanotZAFMTN - Qhubeka P/B Samsung00:16:30  +  00:01:34=50,182 
147 ITADamiano CarusoUSABMC Racing Team00:16:31  +  00:01:35=50,131 
148 CZEJan BártaDEUBora-Argon 1800:16:31  +  00:01:35=50,131 
149 FRABryan NauleauFRATeam Europcar00:16:31  +  00:01:35=50,131 
150 AUTMarco HallerRUSTeam Katusha00:16:31  +  00:01:35=50,131 
151 FRACyril GautierFRATeam Europcar00:16:32  +  00:01:36=50,081 
152 RSAReinardt Janse Van RensburgZAFMTN - Qhubeka P/B Samsung00:16:33  +  00:01:37=50,030 
153 NEDKoen De KortDEUTeam Giant Alpecin00:16:33  +  00:01:37=50,030 
154 AUSNathan HaasUSATeam Cannondale - Garmin00:16:33  +  00:01:37=50,030 
155 NEDAlbert TimmerDEUTeam Giant Alpecin00:16:35  +  00:01:39=49,930 
156 ITAMatteo TosattoRUSTinkoff Saxo00:16:36  +  00:01:40=49,880 
157 ARGEduardo SepulvedaFRABretagne - Séché Environnement00:16:36  +  00:01:40=49,880 
158 ESPRubén PlazaITALampre-Merida00:16:36  +  00:01:40=49,880 
159 RUSDimitry KozonchukRUSTeam Katusha00:16:37  +  00:01:41=49,829 
160 FRAAlexis VuillermozFRAAg2r La Mondiale00:16:38  +  00:01:42=49,780 
161 ITAFilippo PozzatoITALampre-Merida00:16:38  +  00:01:42=49,780 
162 FRAGeoffrey SoupeFRACofidis – Solutions Crédits00:16:39  +  00:01:43=49,730 
163 ITADavide CimolaiITALampre-Merida00:16:39  +  00:01:43=49,730 
164 ITAIvan BassoRUSTinkoff Saxo00:16:41  +  00:01:45=49,630 
165 AUSMark RenshawBELEtixx - Quick Step00:16:42  +  00:01:46=49,581 
166 FRAPierre RollandFRATeam Europcar00:16:42  +  00:01:46=49,581 
167 AUSAdam HansenBELLotto Soudal00:16:43  +  00:01:47=49,531 
168 LUXLaurent DidierUSATrek Factory Racing00:16:43  +  00:01:47=49,531 
169 BELJohan VansummerenFRAAg2r La Mondiale00:16:44  +  00:01:48=49,482 
170 BELKenneth VanbilsenFRACofidis – Solutions Crédits00:16:44  +  00:01:48=49,482 
171 BELSam BennettDEUBora-Argon 1800:16:44  +  00:01:48=49,482 
172 DENMichael ValgrenRUSTinkoff Saxo00:16:45  +  00:01:49=49,433 
173 COLJulián ArredondoUSATrek Factory Racing00:16:46  +  00:01:50=49,384 
174 ESPJosé Herrada LópezESPMovistar Team00:16:46  +  00:01:50=49,384 
175 ERIMerhawi GhebremedhinZAFMTN - Qhubeka P/B Samsung00:16:47  +  00:01:51=49,335 
176 FRABryan CoquardFRATeam Europcar00:16:47  +  00:01:51=49,335 
177 SUIMichael SchärUSABMC Racing Team00:16:47  +  00:01:51=49,335 
178 ITAJacopo GuarnieriRUSTeam Katusha00:16:47  +  00:01:51=49,335 
179 FRAYohann GèneFRATeam Europcar00:16:49  +  00:01:53=49,237 
180 WALLuke RoweGBRSky Procycling00:16:50  +  00:01:54=49,188 
181 ITALuca PaoliniRUSTeam Katusha00:16:51  +  00:01:55=49,139 
182 HRVKristijan DurasekITALampre-Merida00:16:51  +  00:01:55=49,139 
183 FRAAngelo TulikFRATeam Europcar00:16:53  +  00:01:57=49,042 
184 ESPLuis Angel MateFRACofidis – Solutions Crédits00:16:54  +  00:01:58=48,994 
185 FRAFrédéric BrunFRABretagne - Séché Environnement00:16:57  +  00:02:01=48,850 
186 FRASébastien ChavanelFRAFDJ00:16:58  +  00:02:02=48,802 
187 COLJosé SerpaITALampre-Merida00:17:05  +  00:02:09=48,468 
188 NEDRoy CurversDEUTeam Giant Alpecin00:17:08  +  00:02:12=48,327 
189 ITAMatteo BonoITALampre-Merida00:17:09  +  00:02:13=48,280 
190 LUXBen GastauerFRAAg2r La Mondiale00:17:10  +  00:02:14=48,233 
191 FRANacer BouhanniFRACofidis – Solutions Crédits00:17:10  +  00:02:14=48,233 
192 FRAArnaud GérardFRABretagne - Séché Environnement00:17:14  +  00:02:18=48,046 
193 FRAPierre-Luc PérichonFRABretagne - Séché Environnement00:17:19  +  00:02:23=47,815 
194 FRAPerrig QuemeneurFRATeam Europcar00:17:20  +  00:02:24=47,769 
195 ITAGiampaolo CarusoRUSTeam Katusha00:17:20  +  00:02:24=47,769 
196 FRAArmindo FonsecaFRABretagne - Séché Environnement00:17:21  +  00:02:25=47,723 
197 FRABrice FeilluFRABretagne - Séché Environnement00:17:24  +  00:02:28=47,586 
198 FRAMickaël CherelFRAAg2r La Mondiale00:18:32  +  00:03:36=44,676 


Todays birthdays.

1888  Emile Dalifard
1895  Giovanni Canova
1898  Omer Huyse
1928  Vicente Iturat
1935  Jean-Claude Annaert
1938  Antoine Abate
1947  Wil De Vlam
1962  Jokin Mujika
1963  Vicente Ridaura
1985  Reto Hollenstein
1987  Gianluca Brambilla